Simultaneous Nadir Overpasses (SNOs) Predictions

Prediction of SNOs between AURA and NPP Satellite Orbit:

Table of predicted SNOs for the next 14.0 days since TLE Epoch: 9/12/2015
Index Date (AURA) Time (AURA) Lat,Lon (AURA) SZA (AURA ) Date (NPP) Time (NPP) Lat,Lon (NPP) SZA (NPP ) Distance(km) Time Diff (sec)
1 09/14/2015 01:13:33 78.65, 53.24 89.85 09/14/2015 01:12:58 78.66, 53.24 89.88 0.17 35
2 09/14/2015 02:02:51 -79.04,-136.96 90.65 09/14/2015 02:03:33 -79.03,-136.98 90.68 0.53 42
3 09/16/2015 17:29:57 78.83, 170.11 90.58 09/16/2015 17:29:45 78.83, 170.15 90.58 0.95 12
4 09/16/2015 18:19:16 -79.17, -20.26 89.86 09/16/2015 18:20:21 -79.17, -20.24 89.92 0.40 65
5 09/19/2015 08:57:09 -78.43, 116.19 87.94 09/19/2015 08:56:03 -78.43, 116.13 87.88 1.32 66
6 09/19/2015
